Manistique, MI

4:18 AM EDT on September 28, 2016 (GMT -0400)
Schoolcraft County

Weather History for KISQ - December, 2013

Change the Weather History Date:

Tuesday, December 17, 2013

  Actual Average Record
Temperature  
Mean Temperature 14 °F -  
Max Temperature 22 °F 30 °F 47 °F (1993)
Min Temperature 7 °F 14 °F -12 °F (1983)
Degree Days  
Heating Degree Days 50    
Moisture  
Dew Point 11 °F    
Average Humidity 85    
Maximum Humidity 92    
Minimum Humidity 75    
Precipitation  
Precipitation 0.00 in - - ()
Sea Level Pressure  
Sea Level Pressure 29.81 in    
Wind  
Wind Speed 4 mph (West)    
Max Wind Speed 15 mph    
Max Gust Speed 21 mph    
Visibility 7 miles    
Events Snow    
Averages and records for this station are not official NWS values.
T = Trace of Precipitation, MM = Missing Value Source: NWS Daily Summary

Daily Weather History Graph

Daily Weather History Graph

Search for Another Location

Airport or City:

Trip Planner

Search our weather history database for the weather conditions in past years. The results will help you decide how hot, cold, wet, or windy it might be!

Date:

Astronomy

Dec. 17, 2013 Rise Set
Actual Time 8:21 AM EST 5:00 PM EST
Civil Twilight 7:46 AM EST 5:35 PM EST
Nautical Twilight 7:08 AM EST 6:13 PM EST
Astronomical Twilight 6:32 AM EST 6:49 PM EST
Moon 5:43 PM EST (12/17) 8:13 AM EST (12/17)
Length of Visible Light 9h 48m
Length of Day
8h 39m
Full, 100% of the Moon is Illuminated
Dec 17
Full
Dec 25
Last Quarter
Jan 1
New
Jan 7
First Quarter
Jan 15
Full

Hourly Weather History & Observations

Time (EST) Temp. Windchill Dew Point Humidity Pressure Visibility Wind Dir Wind Speed Gust Speed Precip Events Conditions
12:15 AM 14.9 °F 7.5 °F 11.3 °F 86% 29.85 in 2.5 mi WSW 4.6 mph - N/A Snow Light Snow
12:34 AM 14.7 °F - 11.1 °F 86% 29.85 in 3.0 mi Calm Calm - N/A Snow Light Snow
12:55 AM 14.0 °F 6.5 °F 10.6 °F 86% 29.84 in 1.8 mi WSW 4.6 mph - N/A Snow Light Snow
1:14 AM 13.8 °F 6.2 °F 10.4 °F 86% 29.83 in 3.0 mi West 4.6 mph - N/A Snow Light Snow
1:35 AM 13.6 °F - 10.2 °F 86% 29.83 in 3.0 mi Calm Calm - N/A Snow Light Snow
1:55 AM 13.3 °F 7.3 °F 9.5 °F 85% 29.83 in 5.0 mi WSW 3.5 mph - N/A Snow Light Snow
2:14 AM 13.1 °F - 9.5 °F 86% 29.83 in 4.0 mi Calm Calm - N/A Snow Light Snow
2:35 AM 12.2 °F 6.1 °F 8.6 °F 85% 29.83 in 5.0 mi WSW 3.5 mph - N/A Snow Light Snow
2:55 AM 12.0 °F - 8.6 °F 86% 29.83 in 4.0 mi Calm Calm - N/A Snow Light Snow
3:14 AM 11.8 °F - 8.4 °F 86% 29.82 in 10.0 mi Calm Calm - N/A   Overcast
3:35 AM 11.7 °F 3.7 °F 7.7 °F 84% 29.81 in 10.0 mi WSW 4.6 mph - N/A   Overcast
3:54 AM 11.3 °F 1.9 °F 7.5 °F 85% 29.81 in 10.0 mi WSW 5.8 mph - N/A   Overcast
4:14 AM 10.2 °F 3.8 °F 6.8 °F 86% 29.81 in 10.0 mi WSW 3.5 mph - N/A   Scattered Clouds
4:35 AM 9.5 °F 3.0 °F 6.4 °F 87% 29.80 in 10.0 mi WSW 3.5 mph - N/A   Clear
4:54 AM 9.5 °F 1.2 °F 6.4 °F 87% 29.80 in 10.0 mi WSW 4.6 mph - N/A   Clear
5:15 AM 9.3 °F -0.5 °F 5.9 °F 86% 29.81 in 10.0 mi West 5.8 mph - N/A   Clear
5:35 AM 9.1 °F -1.9 °F 5.5 °F 85% 29.81 in 10.0 mi West 6.9 mph - N/A   Clear
5:54 AM 9.1 °F 0.8 °F 5.4 °F 85% 29.80 in 10.0 mi West 4.6 mph - N/A   Clear
6:15 AM 7.2 °F -1.5 °F 3.4 °F 85% 29.80 in 10.0 mi West 4.6 mph - N/A   Scattered Clouds
6:35 AM 7.9 °F - 4.3 °F 85% 29.80 in 10.0 mi Calm Calm - N/A   Mostly Cloudy
6:54 AM 8.4 °F - 4.6 °F 85% 29.81 in 10.0 mi Calm Calm - N/A   Overcast
7:15 AM 8.6 °F -1.3 °F 4.8 °F 85% 29.80 in 10.0 mi West 5.8 mph - N/A   Overcast
7:34 AM 8.4 °F -0.1 °F 4.6 °F 85% 29.80 in 10.0 mi West 4.6 mph - N/A   Overcast
7:54 AM 7.3 °F -2.8 °F 3.7 °F 85% 29.80 in 10.0 mi West 5.8 mph - N/A   Scattered Clouds
8:15 AM 7.2 °F 0.3 °F 3.4 °F 85% 29.79 in 10.0 mi WSW 3.5 mph - N/A   Scattered Clouds
8:34 AM 7.5 °F -2.6 °F 3.9 °F 85% 29.79 in 10.0 mi West 5.8 mph - N/A Snow Light Snow
8:55 AM 8.4 °F -2.8 °F 4.8 °F 85% 29.79 in 4.0 mi West 6.9 mph - N/A Snow Light Snow
9:15 AM 9.0 °F -4.2 °F 5.5 °F 86% 29.79 in 2.5 mi West 9.2 mph - N/A Snow Light Snow
9:34 AM 9.5 °F -2.6 °F 5.9 °F 85% 29.79 in 2.5 mi West 8.1 mph - N/A Snow Light Snow
9:55 AM 10.0 °F -0.9 °F 6.3 °F 85% 29.79 in 5.0 mi WNW 6.9 mph - N/A Snow Light Snow
10:15 AM 10.4 °F 0.8 °F 6.6 °F 85% 29.79 in 5.0 mi West 5.8 mph - N/A Snow Light Snow
10:34 AM 11.1 °F 3.1 °F 7.3 °F 85% 29.79 in 1.8 mi West 4.6 mph - N/A Snow Light Snow
10:55 AM 11.5 °F - 7.5 °F 84% 29.79 in 1.5 mi Calm Calm - N/A Snow Light Snow
11:14 AM 12.2 °F 6.1 °F 7.7 °F 82% 29.79 in 1.2 mi WSW 3.5 mph - N/A Snow Light Snow
11:35 AM 12.7 °F 6.7 °F 7.9 °F 81% 29.78 in 2.5 mi WSW 3.5 mph - N/A Snow Light Snow
11:55 AM 13.1 °F 7.1 °F 7.9 °F 80% 29.78 in 10.0 mi WSW 3.5 mph - N/A Snow Light Snow
12:14 PM 13.8 °F 3.7 °F 9.0 °F 81% 29.77 in 3.0 mi West 6.9 mph - N/A Snow Light Snow
12:35 PM 13.6 °F 4.6 °F 8.6 °F 80% 29.77 in 2.0 mi WSW 5.8 mph - N/A Snow Light Snow
12:55 PM 14.0 °F 5.1 °F 9.1 °F 81% 29.76 in 4.0 mi West 5.8 mph - N/A Snow Light Snow
1:14 PM 14.7 °F 5.9 °F 9.7 °F 80% 29.77 in 5.0 mi West 5.8 mph - N/A Snow Light Snow
1:35 PM 14.9 °F 7.5 °F 10.4 °F 82% 29.76 in 5.0 mi West 4.6 mph - N/A Snow Light Snow
1:54 PM 15.3 °F 7.9 °F 10.8 °F 82% 29.76 in 10.0 mi WNW 4.6 mph - N/A Snow Light Snow
2:14 PM 15.6 °F 10.0 °F 10.9 °F 82% 29.75 in 10.0 mi West 3.5 mph - N/A Snow Light Snow
2:35 PM 15.8 °F - 11.3 °F 82% 29.75 in 10.0 mi Calm Calm - N/A   Scattered Clouds
2:54 PM 17.1 °F 11.7 °F 11.3 °F 78% 29.76 in 10.0 mi West 3.5 mph - N/A   Scattered Clouds
3:15 PM 17.6 °F 10.7 °F 13.1 °F 83% 29.77 in 10.0 mi West 4.6 mph - N/A   Overcast
3:35 PM 18.1 °F 12.9 °F 13.8 °F 83% 29.77 in 10.0 mi SW 3.5 mph - N/A   Overcast
3:54 PM 18.5 °F 13.3 °F 14.4 °F 84% 29.78 in 7.0 mi WSW 3.5 mph - N/A Snow Light Snow
4:15 PM 18.7 °F - 14.7 °F 85% 29.78 in 5.0 mi Calm Calm - N/A Snow Light Snow
4:35 PM 17.6 °F 12.3 °F 14.5 °F 88% 29.78 in 7.0 mi SW 3.5 mph - N/A   Clear
4:54 PM 18.0 °F - 14.9 °F 88% 29.78 in 10.0 mi Calm Calm - N/A   Clear
5:15 PM 18.3 °F 13.1 °F 15.3 °F 88% 29.78 in 7.0 mi SW 3.5 mph - N/A   Clear
5:34 PM 19.2 °F 12.5 °F 16.0 °F 87% 29.78 in 10.0 mi WSW 4.6 mph - N/A   Clear
5:55 PM 18.9 °F 13.7 °F 15.6 °F 87% 29.79 in 10.0 mi WSW 3.5 mph - N/A   Clear
6:14 PM 19.4 °F 11.5 °F 15.8 °F 86% 29.80 in 10.0 mi WSW 5.8 mph - N/A   Clear
6:35 PM 20.1 °F 12.3 °F 16.2 °F 85% 29.80 in 10.0 mi WSW 5.8 mph - N/A   Clear
6:54 PM 20.3 °F 11.5 °F 16.5 °F 85% 29.81 in 10.0 mi WSW 6.9 mph - N/A   Clear
7:14 PM 21.0 °F 13.4 °F 17.1 °F 85% 29.81 in 10.0 mi WSW 5.8 mph - N/A   Scattered Clouds
7:35 PM 21.0 °F 14.6 °F 17.1 °F 85% 29.82 in 10.0 mi West 4.6 mph - N/A   Mostly Cloudy
7:54 PM 21.0 °F 14.6 °F 17.2 °F 85% 29.82 in 10.0 mi West 4.6 mph - N/A   Overcast
8:15 PM 21.2 °F 14.9 °F 17.4 °F 85% 29.83 in 10.0 mi West 4.6 mph - N/A   Overcast
8:35 PM 21.0 °F 12.4 °F 17.4 °F 86% 29.83 in 7.0 mi West 6.9 mph - N/A Snow Light Snow
8:54 PM 21.6 °F 12.1 °F 18.7 °F 89% 29.84 in 2.5 mi West 8.1 mph - N/A Snow Light Snow
9:15 PM 22.1 °F 12.8 °F 19.8 °F 91% 29.85 in 3.0 mi West 8.1 mph - N/A Snow Light Snow
9:35 PM 22.1 °F 13.7 °F 20.1 °F 92% 29.85 in 4.0 mi WNW 6.9 mph - N/A Snow Light Snow
9:54 PM 22.3 °F 13.0 °F 19.8 °F 90% 29.86 in 3.0 mi WNW 8.1 mph - N/A Snow Light Snow
10:15 PM 22.1 °F 10.0 °F 19.4 °F 89% 29.86 in 4.0 mi WNW 12.7 mph 18.4 mph N/A Snow Light Snow
10:34 PM 22.1 °F 11.3 °F 19.0 °F 88% 29.86 in 4.0 mi NW 10.4 mph 20.7 mph N/A Snow Light Snow
10:54 PM 21.9 °F 11.7 °F 19.2 °F 89% 29.86 in 4.0 mi WNW 9.2 mph - N/A Snow Light Snow
11:15 PM 21.6 °F 10.6 °F 18.3 °F 87% 29.87 in 7.0 mi NW 10.4 mph 17.3 mph N/A Snow Light Snow
11:34 PM 20.8 °F 7.3 °F 15.8 °F 81% 29.88 in 10.0 mi WNW 15.0 mph 20.7 mph N/A   Overcast
11:55 PM 20.1 °F 8.8 °F 13.5 °F 75% 29.88 in 10.0 mi WNW 10.4 mph 18.4 mph N/A   Overcast